Silver City, NM

2:55 PM MST on December 07, 2019 (GMT -0700)
Grant County

Weather History for KSVC - October, 2019

Change the Weather History Date:

Saturday, October 26, 2019

  Actual Average (KDMN) Record (KDMN)
Temperature  
Mean Temperature 50 °F -  
Max Temperature 72 °F 73 °F 90 °F (1959)
Min Temperature 28 °F 40 °F 26 °F (2019)
Degree Days  
Heating Degree Days 15    
Moisture  
Dew Point 13 °F    
Average Humidity 31    
Maximum Humidity 64    
Minimum Humidity 8    
Precipitation  
Precipitation 0.00 in - - ()
Sea Level Pressure  
Sea Level Pressure 30.07 in    
Wind  
Wind Speed 8 mph (NNW)    
Max Wind Speed 16 mph    
Max Gust Speed -    
Visibility 10 miles    
Events      
Averages and records for this station are not official NWS values.
T = Trace of Precipitation, MM = Missing Value Source: NWS Daily Summary

Daily Weather History Graph

Daily Weather History Graph

Search for Another Location

Airport or City:

Astronomy

Oct. 26, 2019 Rise Set
Actual Time 7:25 AM MDT 6:27 PM MDT
Civil Twilight 6:59 AM MDT 6:52 PM MDT
Nautical Twilight 6:30 AM MDT 7:21 PM MDT
Astronomical Twilight 6:02 AM MDT 7:50 PM MDT
Moon 5:34 AM MDT (10/26) 5:56 PM MDT (10/26)
Length of Visible Light 11h 52m
Length of Day
11h 02m
Waning Crescent, 3% of the Moon is Illuminated
Oct 26
Waning Crescent
Oct 27
New
Nov 4
First Quarter
Nov 12
Full
Nov 19
Last Quarter

Hourly Weather History & Observations

Time (MDT) Temp. Windchill Dew Point Humidity Pressure Visibility Wind Dir Wind Speed Gust Speed Precip Events Conditions
12:15 AM 31.6 °F 25.1 °F 18.1 °F 57% 30.23 in 10.0 mi North 6.9 mph - N/A   Clear
12:35 AM 32.0 °F 25.6 °F 18.3 °F 57% 30.22 in 10.0 mi North 6.9 mph - N/A   Clear
12:55 AM 31.1 °F 25.4 °F 18.1 °F 59% 30.21 in 10.0 mi North 5.8 mph - N/A   Clear
1:15 AM 30.2 °F 22.6 °F 17.6 °F 60% 30.21 in 10.0 mi North 8.1 mph - N/A   Clear
1:35 AM 30.7 °F 22.6 °F 18.1 °F 60% 30.20 in 10.0 mi North 9.2 mph - N/A   Clear
1:55 AM 31.1 °F 23.7 °F 18.1 °F 59% 30.20 in 10.0 mi North 8.1 mph - N/A   Clear
2:15 AM 30.6 °F 23.8 °F 18.1 °F 60% 30.19 in 10.0 mi North 6.9 mph - N/A   Clear
2:35 AM 29.3 °F 20.8 °F 17.6 °F 62% 30.19 in 10.0 mi NNW 9.2 mph - N/A   Clear
2:55 AM 28.6 °F 21.5 °F 17.6 °F 64% 30.18 in 10.0 mi North 6.9 mph - N/A   Clear
3:15 AM 30.9 °F 23.5 °F 18.3 °F 60% 30.18 in 10.0 mi North 8.1 mph - N/A   Clear
3:35 AM 31.5 °F 23.5 °F 18.5 °F 59% 30.17 in 10.0 mi North 9.2 mph - N/A   Clear
3:55 AM 30.6 °F 22.4 °F 18.0 °F 60% 30.17 in 10.0 mi North 9.2 mph - N/A   Clear
4:15 AM 30.9 °F 22.8 °F 18.3 °F 60% 30.16 in 10.0 mi North 9.2 mph - N/A   Clear
4:35 AM 30.9 °F 22.8 °F 18.3 °F 60% 30.16 in 10.0 mi North 9.2 mph - N/A   Clear
4:55 AM 31.1 °F 23.1 °F 18.3 °F 59% 30.15 in 10.0 mi North 9.2 mph - N/A   Clear
5:15 AM 30.7 °F 23.3 °F 18.1 °F 60% 30.14 in 10.0 mi North 8.1 mph - N/A   Clear
5:35 AM 30.9 °F 22.8 °F 18.3 °F 60% 30.13 in 10.0 mi North 9.2 mph - N/A   Clear
5:55 AM 31.1 °F 23.1 °F 18.5 °F 60% 30.14 in 10.0 mi North 9.2 mph - N/A   Clear
6:15 AM 31.6 °F 23.7 °F 18.1 °F 57% 30.13 in 10.0 mi North 9.2 mph - N/A   Clear
6:35 AM 30.9 °F 22.2 °F 17.6 °F 58% 30.13 in 10.0 mi North 10.4 mph - N/A   Clear
6:55 AM 30.9 °F 22.2 °F 18.1 °F 59% 30.13 in 10.0 mi North 10.4 mph - N/A   Clear
7:15 AM 30.2 °F 21.3 °F 18.0 °F 60% 30.13 in 10.0 mi North 10.4 mph - N/A   Clear
7:35 AM 30.6 °F 22.4 °F 18.0 °F 60% 30.13 in 10.0 mi North 9.2 mph - N/A   Clear
7:55 AM 32.5 °F 24.8 °F 19.0 °F 58% 30.13 in 10.0 mi North 9.2 mph - N/A   Clear
8:15 AM 37.4 °F 30.8 °F 20.8 °F 51% 30.13 in 10.0 mi North 9.2 mph - N/A   Clear
8:35 AM 42.8 °F 37.5 °F 20.5 °F 41% 30.13 in 10.0 mi North 9.2 mph - N/A   Clear
8:55 AM 47.8 °F - 19.8 °F 33% 30.13 in 10.0 mi North 8.1 mph - N/A   Clear
9:15 AM 50.9 °F - 17.1 °F 26% 30.13 in 10.0 mi North 5.8 mph - N/A   Clear
9:35 AM 53.4 °F - 17.2 °F 24% 30.12 in 10.0 mi North 3.5 mph - N/A   Clear
9:55 AM 54.9 °F - 15.6 °F 21% 30.12 in 10.0 mi NNW 3.5 mph - N/A   Clear
10:15 AM 55.9 °F - 12.7 °F 18% 30.11 in 10.0 mi Calm Calm - N/A   Clear
10:35 AM 57.6 °F - 13.5 °F 18% 30.11 in 10.0 mi Calm Calm - N/A   Clear
10:55 AM 58.8 °F - 13.6 °F 17% 30.10 in 10.0 mi Calm Calm - N/A   Clear
11:15 AM 60.1 °F - 12.2 °F 15% 30.10 in 10.0 mi Calm Calm - N/A   Clear
11:35 AM 62.2 °F - 13.8 °F 15% 30.08 in 10.0 mi South 3.5 mph - N/A   Clear
11:55 AM 62.6 °F - 11.1 °F 13% 30.08 in 10.0 mi South 4.6 mph - N/A   Clear
12:15 PM 63.0 °F - 10.9 °F 13% 30.08 in 10.0 mi Calm Calm - N/A   Clear
12:35 PM 63.7 °F - 9.5 °F 12% 30.07 in 10.0 mi South 5.8 mph - N/A   Clear
1:15 PM 66.4 °F - 11.8 °F 12% 30.04 in 10.0 mi SSW 6.9 mph - N/A   Clear
1:35 PM 67.1 °F - 11.7 °F 12% 30.03 in 10.0 mi SSW 9.2 mph - N/A   Clear
1:55 PM 67.3 °F - 12.6 °F 12% 30.02 in 10.0 mi SW 4.6 mph - N/A   Clear
2:15 PM 68.4 °F - 12.7 °F 12% 30.01 in 10.0 mi SSW 5.8 mph - N/A   Clear
2:35 PM 68.9 °F - 12.0 °F 11% 29.99 in 10.0 mi SSE 5.8 mph - N/A   Clear
2:55 PM 70.3 °F - 12.4 °F 11% 29.98 in 10.0 mi South 6.9 mph - N/A   Clear
3:15 PM 71.1 °F - 12.2 °F 10% 29.98 in 10.0 mi SSW 11.5 mph - N/A   Clear
3:35 PM 71.4 °F - 11.7 °F 10% 29.97 in 10.0 mi South 9.2 mph - N/A   Clear
3:55 PM 71.6 °F - 10.0 °F 9% 29.97 in 10.0 mi SSW 9.2 mph - N/A   Clear
4:15 PM 71.4 °F - 11.7 °F 10% 29.96 in 10.0 mi WSW 9.2 mph - N/A   Clear
4:35 PM 72.1 °F - 10.0 °F 9% 29.96 in 10.0 mi NW 10.4 mph - N/A   Clear
4:55 PM 71.1 °F - 8.4 °F 9% 29.96 in 10.0 mi West 15.0 mph - N/A   Clear
5:15 PM 69.6 °F - 6.4 °F 8% 29.96 in 10.0 mi WNW 12.7 mph - N/A   Clear
5:35 PM 68.4 °F - 5.0 °F 8% 29.96 in 10.0 mi West 16.1 mph - N/A   Clear
5:55 PM 66.7 °F - 3.4 °F 8% 29.96 in 10.0 mi West 15.0 mph - N/A   Clear
6:15 PM 63.9 °F - 4.5 °F 9% 29.96 in 10.0 mi WNW 9.2 mph - N/A   Clear
6:35 PM 59.5 °F - 4.8 °F 11% 29.97 in 10.0 mi WNW 9.2 mph - N/A   Clear
6:55 PM 58.1 °F - 3.0 °F 11% 29.97 in 10.0 mi WNW 10.4 mph - N/A   Clear
7:15 PM 56.1 °F - 3.0 °F 12% 29.97 in 10.0 mi NW 9.2 mph - N/A   Clear
7:35 PM 54.5 °F - 4.5 °F 13% 29.98 in 10.0 mi NW 11.5 mph - N/A   Clear
7:55 PM 50.5 °F - 5.4 °F 16% 29.98 in 10.0 mi NW 11.5 mph - N/A   Clear
8:15 PM 50.0 °F - 6.6 °F 17% 29.98 in 10.0 mi NNW 11.5 mph - N/A   Clear
8:35 PM 51.4 °F - 7.3 °F 17% 29.99 in 10.0 mi NNW 10.4 mph - N/A   Clear
8:55 PM 47.7 °F - 7.7 °F 20% 29.99 in 10.0 mi NW 12.7 mph - N/A   Clear
9:15 PM 47.5 °F - 8.4 °F 21% 29.99 in 10.0 mi NW 12.7 mph - N/A   Clear
9:35 PM 48.2 °F - 9.5 °F 21% 29.99 in 10.0 mi NNW 12.7 mph - N/A   Clear
9:55 PM 48.4 °F - 10.0 °F 21% 29.99 in 10.0 mi NNW 15.0 mph - N/A   Clear
10:15 PM 47.5 °F - 10.4 °F 22% 29.99 in 10.0 mi NNW 15.0 mph - N/A   Clear
10:35 PM 48.6 °F - 10.9 °F 22% 29.99 in 10.0 mi NNW 12.7 mph - N/A   Clear
10:55 PM 47.7 °F - 11.3 °F 23% 29.99 in 10.0 mi NNW 10.4 mph - N/A   Clear
11:15 PM 46.0 °F 42.5 °F 11.3 °F 25% 29.99 in 10.0 mi North 6.9 mph - N/A   Clear
11:35 PM 44.4 °F 41.2 °F 11.8 °F 27% 29.99 in 10.0 mi NNW 5.8 mph - N/A   Clear
11:55 PM 46.4 °F - 12.0 °F 25% 29.99 in 10.0 mi Calm Calm - N/A   Clear